Location: Go?cza
(50.3372°N, 19.9313°E)
Time: 00:13:07
(UTC+00:00)

CZ-2C R/B - Pass Details

Date: 23 May 2024
Orbit: 784 x 868 km, 98.3° (Epoch: 18 June)

Event Time Altitude Azimuth Distance (km) Brightness Sun altitude
Exits shadow 00:47:47 11° 171° (S) 2,283 4.5 -13.4°
Maximum altitude 00:52:48 74° 257° (WSW) 819 2.5 -13.0°
Drops below altitude 10° 00:58:00 10° 343° (NNW) 2,363 5.6 -12.5°
Sets 01:00:22 0° 345° (NNW) 3,304 6.4 -12.3°
